Location: Couloutre
(47.4081°N, 3.2259°E)
Time: 23:28:02
(UTC+00:00)

STARLINK-30 - Pass Details

Date: 27 February 2020
Orbit: 529 x 530 km, 53.0° (Epoch: 05 April)

Event Time Altitude Azimuth Distance (km) Brightness Sun altitude
Rises 19:28:22 0° 291° (WNW) 2,671 8.6 -21.0°
Reaches altitude 10° 19:30:41 10° 299° (WNW) 1,781 7.3 -21.4°
Maximum altitude 19:34:31 40° 10° (N) 797 4.4 -22.0°
Enters shadow 19:34:41 39° 17° (NNE) 801 4.3 -22.1°
